| time (UTC) | temp F | wind direction | speed knots | gust knots | rain 1hr in | rain 24hr in | rain mn in | humidity % | barometer mb |
| 20260509213613 | 77 | 249 | 1.7 | 1.7 | 0.00 | 0.00 | 0.00 | 77 | 1016.3 |
| 20260509213110 | 77 | 222 | 3.5 | 4.3 | 0.00 | 0.00 | 0.00 | 76 | 1016.3 |
| 20260509212607 | 77 | 262 | 5.2 | 7.0 | 0.00 | 0.00 | 0.00 | 75 | 1016.3 |
| 20260509212104 | 77 | 258 | 5.2 | 6.1 | 0.00 | 0.00 | 0.00 | 78 | 1016.3 |
| 20260509211600 | 77 | 258 | 2.6 | 5.2 | 0.00 | 0.00 | 0.00 | 77 | 1016.4 |
| 20260509211057 | 77 | 258 | 0.9 | 0.9 | 0.00 | 0.00 | 0.00 | 76 | 1016.3 |
| 20260509210553 | 76 | 258 | 2.6 | 2.6 | 0.00 | 0.00 | 0.00 | 75 | 1016.4 |
| 20260509210050 | 77 | 258 | 1.7 | 1.7 | 0.00 | 0.00 | 0.00 | 77 | 1016.3 |
| 20260509205544 | 77 | 258 | 3.5 | 6.1 | 0.00 | 0.00 | 0.00 | 77 | 1016.4 |
| 20260509205040 | 77 | 258 | 0.0 | 0.9 | 0.00 | 0.00 | 0.00 | 77 | 1016.3 |
| 20260509204536 | 77 | 258 | 1.7 | 1.7 | 0.00 | 0.00 | 0.00 | 77 | 1016.3 |
| 20260509204032 | 77 | 258 | 0.9 | 1.7 | 0.00 | 0.00 | 0.00 | 75 | 1016.4 |
| 20260509203528 | 77 | 258 | 1.7 | 2.6 | 0.00 | 0.00 | 0.00 | 75 | 1016.4 |
| 20260509203027 | 77 | 258 | 0.9 | 0.9 | 0.00 | 0.00 | 0.00 | 75 | 1016.4 |
| 20260509202526 | 77 | 258 | 0.9 | 0.9 | 0.00 | 0.00 | 0.00 | 77 | 1016.4 |
| 20260509202022 | 77 | 258 | 4.3 | 5.2 | 0.00 | 0.00 | 0.00 | 76 | 1016.6 |
| 20260509201517 | 77 | 258 | 0.9 | 0.9 | 0.00 | 0.00 | 0.00 | 79 | 1016.5 |
| 20260509201015 | 77 | 258 | 1.7 | 2.6 | 0.00 | 0.00 | 0.00 | 78 | 1016.6 |
| 20260509200510 | 78 | 258 | 0.9 | 0.9 | 0.00 | 0.00 | 0.00 | 77 | 1016.6 |
| 20260509200006 | 76 | 258 | 3.5 | 6.1 | 0.00 | 0.00 | 0.00 | 79 | 1016.6 |
| 20260509195501 | 77 | 258 | 1.7 | 1.7 | 0.00 | 0.00 | 0.00 | 78 | 1016.4 |
| 20260509194956 | 78 | 258 | 2.6 | 2.6 | 0.00 | 0.00 | 0.00 | 76 | 1016.6 |
| 20260509194451 | 79 | 258 | 2.6 | 4.3 | 0.00 | 0.00 | 0.00 | 75 | 1016.7 |
| 20260509193948 | 80 | 258 | 2.6 | 4.3 | 0.00 | 0.00 | 0.00 | 73 | 1016.6 |
| 20260509193443 | 81 | 258 | 3.5 | 4.3 | 0.00 | 0.00 | 0.00 | 71 | 1016.6 |
| 20260509192939 | 80 | 258 | 0.0 | 0.9 | 0.00 | 0.00 | 0.00 | 73 | 1016.5 |
| 20260509192436 | 79 | 258 | 0.9 | 0.9 | 0.00 | 0.00 | 0.00 | 75 | 1016.7 |
| 20260509191931 | 79 | 258 | 1.7 | 1.7 | 0.00 | 0.00 | 0.00 | 73 | 1016.6 |
| 20260509191426 | 80 | 258 | 2.6 | 2.6 | 0.00 | 0.00 | 0.00 | 72 | 1016.9 |
| 20260509190923 | 80 | 258 | 0.9 | 0.9 | 0.00 | 0.00 | 0.00 | 69 | 1016.9 |
| 20260509190420 | 80 | 258 | 0.9 | 0.9 | 0.00 | 0.00 | 0.00 | 73 | 1016.7 |
| 20260509185918 | 81 | 258 | 1.7 | 1.7 | 0.00 | 0.00 | 0.00 | 70 | 1016.7 |
| 20260509185415 | 78 | 258 | 3.5 | 4.3 | 0.00 | 0.00 | 0.00 | 74 | 1016.6 |
| 20260509184911 | 79 | 258 | 1.7 | 1.7 | 0.00 | 0.00 | 0.00 | 74 | 1016.7 |
| 20260509184409 | 80 | 258 | 2.6 | 2.6 | 0.00 | 0.00 | 0.00 | 70 | 1016.6 |
| 20260509183905 | 80 | 258 | 0.9 | 0.9 | 0.00 | 0.00 | 0.00 | 66 | 1016.7 |
| 20260509183354 | 80 | 258 | 0.0 | 0.0 | 0.00 | 0.00 | 0.00 | 69 | 1016.9 |
| 20260509182850 | 81 | 258 | 1.7 | 1.7 | 0.00 | 0.00 | 0.00 | 67 | 1017.0 |
| 20260509182347 | 83 | 258 | 1.7 | 2.6 | 0.00 | 0.00 | 0.00 | 66 | 1017.0 |
| 20260509181845 | 82 | 258 | 1.7 | 2.6 | 0.00 | 0.00 | 0.00 | 67 | 1017.1 |
| 20260509181342 | 79 | 258 | 0.9 | 0.9 | 0.00 | 0.00 | 0.00 | 68 | 1017.3 |
| 20260509180839 | 80 | 258 | 0.9 | 0.9 | 0.00 | 0.00 | 0.00 | 67 | 1017.3 |
| 20260509180335 | 82 | 258 | 1.7 | 2.6 | 0.00 | 0.00 | 0.00 | 67 | 1017.5 |
| 20260509175832 | 83 | 258 | 0.9 | 0.9 | 0.00 | 0.00 | 0.00 | 68 | 1017.3 |
| 20260509175328 | 82 | 258 | 4.3 | 7.0 | 0.00 | 0.00 | 0.00 | 67 | 1017.3 |
| 20260509174824 | 80 | 258 | 1.7 | 2.6 | 0.00 | 0.00 | 0.00 | 69 | 1017.6 |
| 20260509174320 | 82 | 258 | 0.9 | 0.9 | 0.00 | 0.00 | 0.00 | 68 | 1017.7 |
| 20260509173816 | 84 | 258 | 0.0 | 0.9 | 0.00 | 0.00 | 0.00 | 63 | 1017.8 |
| 20260509173312 | 84 | 258 | 0.9 | 0.9 | 0.00 | 0.00 | 0.00 | 51 | 1018.0 |
| 20260509172808 | 83 | 258 | 0.0 | 0.0 | 0.00 | 0.00 | 0.00 | 54 | 1017.7 |
| 20260509172306 | 83 | 258 | 0.0 | 0.0 | 0.00 | 0.00 | 0.00 | 52 | 1017.8 |
| 20260509171801 | 84 | 258 | 1.7 | 2.6 | 0.00 | 0.00 | 0.00 | 53 | 1018.1 |
| 20260509171256 | 84 | 258 | 1.7 | 1.7 | 0.00 | 0.00 | 0.00 | 53 | 1018.0 |
| 20260509170753 | 84 | 258 | 0.9 | 1.7 | 0.00 | 0.00 | 0.00 | 50 | 1018.0 |
| 20260509170249 | 84 | 258 | 5.2 | 7.0 | 0.00 | 0.00 | 0.00 | 46 | 1018.1 |
| 20260509165748 | 84 | 258 | 2.6 | 2.6 | 0.00 | 0.00 | 0.00 | 49 | 1018.2 |
| 20260509165244 | 83 | 258 | 1.7 | 1.7 | 0.00 | 0.00 | 0.00 | 63 | 1018.3 |
| 20260509164740 | 83 | 258 | 2.6 | 2.6 | 0.00 | 0.00 | 0.00 | 60 | 1018.3 |
| 20260509164235 | 84 | 258 | 0.0 | 0.0 | 0.00 | 0.00 | 0.00 | 53 | 1018.5 |
| 20260509163733 | 83 | 258 | 0.9 | 0.9 | 0.00 | 0.00 | 0.00 | 58 | 1018.3 |
| 20260509163229 | 82 | 258 | 2.6 | 2.6 | 0.00 | 0.00 | 0.00 | 56 | 1018.3 |
| 20260509162727 | 82 | 258 | 2.6 | 4.3 | 0.00 | 0.00 | 0.00 | 57 | 1018.2 |
| 20260509162222 | 83 | 258 | 2.6 | 4.3 | 0.00 | 0.00 | 0.00 | 56 | 1018.4 |
| 20260509161717 | 82 | 258 | 0.9 | 1.7 | 0.00 | 0.00 | 0.00 | 55 | 1018.5 |
| 20260509161214 | 83 | 258 | 4.3 | 5.2 | 0.00 | 0.00 | 0.00 | 58 | 1018.5 |
| 20260509160709 | 82 | 258 | 0.9 | 1.7 | 0.00 | 0.00 | 0.00 | 57 | 1018.4 |
| 20260509160206 | 81 | 258 | 1.7 | 1.7 | 0.00 | 0.00 | 0.00 | 60 | 1018.5 |
| 20260509155701 | 82 | 258 | 0.9 | 1.7 | 0.00 | 0.00 | 0.00 | 65 | 1018.5 |
| 20260509155158 | 82 | 258 | 1.7 | 1.7 | 0.00 | 0.00 | 0.00 | 57 | 1018.5 |
| 20260509154654 | 82 | 258 | 2.6 | 2.6 | 0.00 | 0.00 | 0.00 | 62 | 1018.9 |
| 20260509154151 | 82 | 258 | 1.7 | 2.6 | 0.00 | 0.00 | 0.00 | 60 | 1018.6 |
| 20260509153648 | 83 | 258 | 0.9 | 0.9 | 0.00 | 0.00 | 0.00 | 60 | 1018.7 |
| 20260509153145 | 82 | 258 | 0.0 | 0.9 | 0.00 | 0.00 | 0.00 | 61 | 1019.3 |
| 20260509152640 | 82 | 258 | 1.7 | 4.3 | 0.00 | 0.00 | 0.00 | 58 | 1019.0 |
| 20260509152138 | 81 | 258 | 0.9 | 0.9 | 0.00 | 0.00 | 0.00 | 66 | 1019.0 |
| 20260509151634 | 80 | 258 | 0.9 | 1.7 | 0.00 | 0.00 | 0.00 | 64 | 1019.0 |
| 20260509151132 | 80 | 258 | 3.5 | 5.2 | 0.00 | 0.00 | 0.00 | 62 | 1018.9 |
| 20260509150630 | 81 | 258 | 1.7 | 2.6 | 0.00 | 0.00 | 0.00 | 62 | 1019.2 |
| 20260509150128 | 81 | 258 | 0.9 | 1.7 | 0.00 | 0.00 | 0.00 | 64 | 1019.1 |
| 20260509145624 | 82 | 258 | 4.3 | 6.1 | 0.00 | 0.00 | 0.00 | 62 | 1019.1 |
| 20260509145119 | 81 | 258 | 0.9 | 1.7 | 0.00 | 0.00 | 0.00 | 65 | 1019.3 |
| 20260509144616 | 81 | 258 | 3.5 | 4.3 | 0.00 | 0.00 | 0.00 | 64 | 1019.1 |
| 20260509144113 | 80 | 258 | 3.5 | 5.2 | 0.00 | 0.00 | 0.00 | 65 | 1019.2 |
| 20260509143610 | 79 | 258 | 1.7 | 1.7 | 0.00 | 0.00 | 0.00 | 66 | 1019.0 |
| 20260509143108 | 79 | 258 | 3.5 | 5.2 | 0.00 | 0.00 | 0.00 | 66 | 1019.4 |
| 20260509142602 | 79 | 258 | 2.6 | 5.2 | 0.00 | 0.00 | 0.00 | 65 | 1019.2 |
| 20260509142059 | 79 | 258 | 2.6 | 4.3 | 0.00 | 0.00 | 0.00 | 64 | 1019.2 |
| 20260509141555 | 80 | 258 | 3.5 | 5.2 | 0.00 | 0.00 | 0.00 | 64 | 1019.1 |
| 20260509141052 | 80 | 258 | 1.7 | 2.6 | 0.00 | 0.00 | 0.00 | 66 | 1019.1 |
| 20260509140549 | 80 | 258 | 0.9 | 1.7 | 0.00 | 0.00 | 0.00 | 67 | 1019.1 |
| 20260509140047 | 79 | 258 | 1.7 | 2.6 | 0.00 | 0.00 | 0.00 | 67 | 1019.1 |
| 20260509135543 | 79 | 258 | 3.5 | 5.2 | 0.00 | 0.00 | 0.00 | 67 | 1019.0 |
| 20260509135041 | 79 | 258 | 4.3 | 5.2 | 0.00 | 0.00 | 0.00 | 65 | 1019.0 |
| 20260509134538 | 79 | 258 | 1.7 | 2.6 | 0.00 | 0.00 | 0.00 | 64 | 1019.1 |
| 20260509134035 | 79 | 260 | 2.6 | 2.6 | 0.00 | 0.00 | 0.00 | 65 | 1019.1 |
| 20260509133531 | 79 | 269 | 0.9 | 1.7 | 0.00 | 0.00 | 0.00 | 65 | 1019.0 |
| 20260509133024 | 78 | 276 | 0.9 | 0.9 | 0.00 | 0.00 | 0.00 | 65 | 1019.1 |
| 20260509132522 | 78 | 268 | 3.5 | 6.1 | 0.00 | 0.00 | 0.00 | 62 | 1018.9 |
| 20260509132020 | 77 | 252 | 2.6 | 2.6 | 0.00 | 0.00 | 0.00 | 67 | 1019.1 |
| 20260509131516 | 77 | 231 | 6.1 | 7.8 | 0.00 | 0.00 | 0.00 | 64 | 1018.9 |
| 20260509131013 | 77 | 265 | 1.7 | 2.6 | 0.00 | 0.00 | 0.00 | 65 | 1019.1 |
| 20260509130508 | 78 | 236 | 2.6 | 4.3 | 0.00 | 0.00 | 0.00 | 66 | 1018.7 |
| 20260509130006 | 78 | 238 | 1.7 | 1.7 | 0.00 | 0.00 | 0.00 | 67 | 1018.9 |
| 20260509125502 | 78 | 282 | 0.9 | 1.7 | 0.00 | 0.00 | 0.00 | 67 | 1018.9 |
| 20260509124958 | 79 | 254 | 0.9 | 1.7 | 0.00 | 0.00 | 0.00 | 66 | 1018.9 |
| 20260509124455 | 77 | 290 | 0.0 | 0.9 | 0.00 | 0.00 | 0.00 | 68 | 1018.9 |
| 20260509123952 | 77 | 289 | 0.0 | 0.0 | 0.00 | 0.00 | 0.00 | 71 | 1018.9 |
| 20260509123450 | 76 | 288 | 0.0 | 0.0 | 0.00 | 0.00 | 0.00 | 73 | 1018.9 |
| 20260509122945 | 76 | 288 | 0.0 | 0.0 | 0.00 | 0.00 | 0.00 | 71 | 1018.4 |
| 20260509122443 | 76 | 292 | 0.9 | 0.9 | 0.00 | 0.00 | 0.00 | 70 | 1018.4 |
| 20260509121939 | 75 | 293 | 0.9 | 0.9 | 0.00 | 0.00 | 0.00 | 72 | 1018.5 |
| 20260509121436 | 76 | 293 | 0.9 | 0.9 | 0.00 | 0.00 | 0.00 | 72 | 1018.6 |
| 20260509120934 | 76 | 293 | 0.9 | 1.7 | 0.00 | 0.00 | 0.00 | 74 | 1018.3 |
| 20260509120432 | 75 | 295 | 0.9 | 0.9 | 0.00 | 0.00 | 0.00 | 72 | 1018.3 |
| 20260509115930 | 74 | 314 | 0.0 | 0.0 | 0.00 | 0.00 | 0.00 | 77 | 1018.1 |
| 20260509115427 | 73 | 317 | 0.9 | 1.7 | 0.00 | 0.00 | 0.00 | 76 | 1018.2 |
| 20260509114924 | 73 | 297 | 0.9 | 0.9 | 0.00 | 0.00 | 0.00 | 77 | 1018.2 |
| 20260509114423 | 73 | 314 | 1.7 | 1.7 | 0.00 | 0.00 | 0.00 | 75 | 1018.2 |
| 20260509113922 | 73 | 305 | 0.9 | 0.9 | 0.00 | 0.00 | 0.00 | 75 | 1018.3 |
| 20260509113419 | 73 | 298 | 0.0 | 0.9 | 0.00 | 0.00 | 0.00 | 74 | 1018.1 |
| 20260509112915 | 73 | 296 | 0.0 | 0.9 | 0.00 | 0.00 | 0.00 | 76 | 1018.4 |
| 20260509112412 | 71 | 289 | 0.0 | 0.9 | 0.00 | 0.00 | 0.00 | 78 | 1018.0 |
| 20260509111904 | 70 | 290 | 0.0 | 0.0 | 0.00 | 0.00 | 0.00 | 77 | 1018.3 |
| 20260509111400 | 70 | 333 | 0.9 | 0.9 | 0.00 | 0.00 | 0.00 | 80 | 1018.2 |
| 20260509110858 | 69 | 297 | 0.0 | 0.0 | 0.00 | 0.00 | 0.00 | 83 | 1018.5 |
| 20260509110354 | 69 | 298 | 0.0 | 0.9 | 0.00 | 0.00 | 0.00 | 85 | 1018.3 |
| 20260509105853 | 68 | 320 | 0.9 | 0.9 | 0.00 | 0.00 | 0.00 | 82 | 1018.1 |
| 20260509105351 | 67 | 308 | 0.0 | 0.9 | 0.00 | 0.00 | 0.00 | 86 | 1018.1 |
| 20260509104847 | 67 | 312 | 0.9 | 0.9 | 0.00 | 0.00 | 0.00 | 83 | 1018.1 |
| 20260509104343 | 66 | 324 | 0.9 | 0.9 | 0.00 | 0.00 | 0.00 | 85 | 1018.0 |
| 20260509103841 | 65 | 297 | 0.0 | 0.0 | 0.00 | 0.00 | 0.00 | 89 | 1017.9 |
| 20260509103338 | 64 | 307 | 0.0 | 0.0 | 0.00 | 0.00 | 0.00 | 88 | 1017.9 |
| 20260509102837 | 63 | 318 | 0.0 | 0.0 | 0.00 | 0.00 | 0.00 | 92 | 1017.9 |
| 20260509102334 | 63 | 327 | 0.9 | 0.9 | 0.00 | 0.00 | 0.00 | 92 | 1017.9 |
| 20260509101830 | 63 | 322 | 0.9 | 0.9 | 0.00 | 0.00 | 0.00 | 92 | 1018.0 |
| 20260509101326 | 63 | 318 | 0.9 | 0.9 | 0.00 | 0.00 | 0.00 | 92 | 1017.7 |
| 20260509100824 | 63 | 307 | 0.9 | 0.9 | 0.00 | 0.00 | 0.00 | 92 | 1017.6 |
| 20260509100321 | 63 | 313 | 0.0 | 0.0 | 0.00 | 0.00 | 0.00 | 92 | 1017.6 |
| 20260509095817 | 63 | 312 | 0.9 | 0.9 | 0.00 | 0.00 | 0.00 | 92 | 1017.4 |
| 20260509095315 | 63 | 310 | 0.9 | 0.9 | 0.00 | 0.00 | 0.00 | 92 | 1017.5 |
| 20260509094812 | 63 | 311 | 0.9 | 1.7 | 0.00 | 0.00 | 0.00 | 91 | 1017.5 |
| 20260509094309 | 64 | 318 | 0.9 | 0.9 | 0.00 | 0.00 | 0.00 | 91 | 1017.4 |
| 20260509093806 | 64 | 321 | 0.0 | 0.9 | 0.00 | 0.00 | 0.00 | 91 | 1017.3 |
| 20260509093303 | 64 | 337 | 0.9 | 0.9 | 0.00 | 0.00 | 0.00 | 90 | 1017.2 |
| 20260509092802 | 63 | 311 | 0.0 | 0.9 | 0.00 | 0.00 | 0.00 | 92 | 1017.1 |
| 20260509092259 | 63 | 312 | 0.0 | 0.9 | 0.00 | 0.00 | 0.00 | 92 | 1017.1 |
| 20260509091757 | 63 | 306 | 0.9 | 0.9 | 0.00 | 0.00 | 0.00 | 93 | 1017.0 |
| 20260509091254 | 63 | 311 | 0.0 | 0.9 | 0.00 | 0.00 | 0.00 | 93 | 1017.2 |
| 20260509090751 | 63 | 306 | 0.9 | 0.9 | 0.00 | 0.00 | 0.00 | 93 | 1017.1 |
| 20260509090248 | 63 | 309 | 0.0 | 0.9 | 0.00 | 0.00 | 0.00 | 93 | 1017.1 |
| 20260509085745 | 63 | 304 | 0.0 | 0.0 | 0.00 | 0.00 | 0.00 | 93 | 1016.6 |
| 20260509085243 | 63 | 302 | 0.0 | 0.0 | 0.00 | 0.00 | 0.00 | 93 | 1017.0 |
| 20260509084739 | 63 | 307 | 0.0 | 0.9 | 0.00 | 0.00 | 0.00 | 93 | 1017.0 |
| 20260509084236 | 63 | 316 | 0.0 | 0.0 | 0.00 | 0.00 | 0.00 | 93 | 1016.7 |
| 20260509083734 | 63 | 305 | 0.0 | 0.0 | 0.00 | 0.00 | 0.00 | 94 | 1016.9 |
| 20260509083231 | 63 | 308 | 0.0 | 0.0 | 0.00 | 0.00 | 0.00 | 94 | 1016.9 |
| 20260509082727 | 63 | 316 | 0.0 | 0.0 | 0.00 | 0.00 | 0.00 | 94 | 1017.0 |
| 20260509082224 | 63 | 308 | 0.0 | 0.9 | 0.00 | 0.00 | 0.00 | 94 | 1017.0 |
| 20260509081721 | 63 | 305 | 0.0 | 0.0 | 0.00 | 0.00 | 0.00 | 94 | 1016.7 |
| 20260509081218 | 63 | 323 | 0.0 | 0.0 | 0.00 | 0.00 | 0.00 | 94 | 1016.7 |
| 20260509080716 | 63 | 311 | 0.0 | 0.9 | 0.00 | 0.00 | 0.00 | 94 | 1016.9 |
| 20260509080214 | 63 | 310 | 0.0 | 0.9 | 0.00 | 0.00 | 0.00 | 95 | 1016.7 |
| 20260509075712 | 63 | 317 | 0.0 | 0.0 | 0.00 | 0.00 | 0.00 | 96 | 1016.9 |
| 20260509075209 | 63 | 316 | 0.0 | 0.0 | 0.00 | 0.00 | 0.00 | 96 | 1017.1 |
| 20260509074706 | 63 | 315 | 0.0 | 0.0 | 0.00 | 0.00 | 0.00 | 96 | 1016.6 |
| 20260509074203 | 63 | 314 | 0.0 | 0.0 | 0.00 | 0.00 | 0.00 | 95 | 1017.1 |
| 20260509073659 | 63 | 315 | 0.0 | 0.0 | 0.00 | 0.00 | 0.00 | 95 | 1016.7 |
| 20260509073156 | 63 | 317 | 0.0 | 0.9 | 0.00 | 0.00 | 0.00 | 95 | 1017.1 |
| 20260509072652 | 63 | 317 | 0.0 | 0.0 | 0.00 | 0.00 | 0.00 | 95 | 1017.0 |
| 20260509072149 | 64 | 316 | 0.0 | 0.0 | 0.00 | 0.00 | 0.00 | 95 | 1017.0 |
| 20260509071646 | 64 | 316 | 0.0 | 0.0 | 0.00 | 0.00 | 0.00 | 95 | 1017.3 |
| 20260509071143 | 64 | 318 | 0.9 | 0.9 | 0.00 | 0.00 | 0.00 | 95 | 1016.9 |
| 20260509070640 | 64 | 316 | 0.0 | 0.9 | 0.00 | 0.00 | 0.00 | 95 | 1017.2 |
| 20260509070136 | 64 | 316 | 0.0 | 0.0 | 0.00 | 0.00 | 0.00 | 95 | 1017.3 |
| 20260509065632 | 64 | 322 | 0.9 | 0.9 | 0.00 | 0.00 | 0.00 | 95 | 1017.0 |
| 20260509065128 | 64 | 318 | 0.0 | 0.0 | 0.00 | 0.00 | 0.00 | 95 | 1017.3 |
| 20260509064625 | 64 | 316 | 0.0 | 0.0 | 0.00 | 0.00 | 0.00 | 95 | 1017.1 |
| 20260509064118 | 64 | 318 | 0.9 | 0.9 | 0.00 | 0.00 | 0.00 | 95 | 1017.1 |
| 20260509063615 | 64 | 317 | 0.0 | 0.0 | 0.00 | 0.00 | 0.00 | 95 | 1016.9 |
| 20260509063111 | 64 | 318 | 0.9 | 0.9 | 0.00 | 0.00 | 0.00 | 95 | 1017.2 |
| 20260509062608 | 64 | 318 | 0.0 | 0.0 | 0.00 | 0.00 | 0.00 | 95 | 1017.1 |
| 20260509062105 | 64 | 318 | 0.0 | 0.0 | 0.00 | 0.00 | 0.00 | 95 | 1017.1 |
| 20260509061602 | 64 | 318 | 0.0 | 0.0 | 0.00 | 0.00 | 0.00 | 95 | 1017.3 |
| 20260509061059 | 64 | 318 | 0.9 | 0.9 | 0.00 | 0.00 | 0.00 | 94 | 1017.2 |
| 20260509060557 | 64 | 319 | 0.9 | 0.9 | 0.00 | 0.00 | 0.00 | 94 | 1017.2 |
| 20260509060052 | 65 | 318 | 0.0 | 0.9 | 0.00 | 0.00 | 0.00 | 94 | 1017.1 |
| 20260509055548 | 65 | 318 | 0.0 | 0.0 | 0.00 | 0.00 | 0.00 | 93 | 1017.3 |
| 20260509055044 | 65 | 322 | 0.0 | 0.0 | 0.00 | 0.00 | 0.00 | 93 | 1017.4 |
| 20260509054541 | 65 | 314 | 0.0 | 0.9 | 0.00 | 0.00 | 0.00 | 93 | 1017.5 |
| 20260509054039 | 64 | 316 | 0.0 | 0.9 | 0.00 | 0.00 | 0.00 | 94 | 1017.4 |
| 20260509053537 | 64 | 313 | 0.0 | 0.0 | 0.00 | 0.00 | 0.00 | 94 | 1017.7 |
| 20260509053033 | 64 | 314 | 0.0 | 0.0 | 0.00 | 0.00 | 0.00 | 94 | 1017.6 |
| 20260509052531 | 64 | 313 | 0.0 | 0.0 | 0.00 | 0.00 | 0.00 | 94 | 1017.5 |
| 20260509052030 | 64 | 314 | 0.0 | 0.9 | 0.00 | 0.00 | 0.00 | 94 | 1017.6 |
| 20260509051527 | 64 | 311 | 0.0 | 0.9 | 0.00 | 0.00 | 0.00 | 94 | 1017.9 |
| 20260509051024 | 64 | 312 | 0.0 | 0.0 | 0.00 | 0.00 | 0.00 | 94 | 1017.9 |
| 20260509050520 | 64 | 313 | 0.0 | 0.0 | 0.00 | 0.00 | 0.00 | 94 | 1017.7 |
| 20260509050011 | 64 | 310 | 0.0 | 0.0 | 0.00 | 0.00 | 0.00 | 94 | 1017.8 |
| 20260509045509 | 64 | 312 | 0.0 | 0.0 | 0.00 | 0.00 | 0.00 | 94 | 1018.1 |
| 20260509045006 | 64 | 331 | 0.9 | 0.9 | 0.00 | 0.00 | 0.00 | 94 | 1018.0 |
| 20260509044504 | 65 | 316 | 0.0 | 0.0 | 0.00 | 0.00 | 0.00 | 94 | 1017.9 |
| 20260509044000 | 65 | 320 | 0.9 | 0.9 | 0.00 | 0.00 | 0.00 | 94 | 1017.8 |
| 20260509043456 | 65 | 325 | 0.0 | 0.9 | 0.00 | 0.00 | 0.00 | 94 | 1017.8 |
| 20260509042951 | 65 | 318 | 0.9 | 0.9 | 0.00 | 0.00 | 0.00 | 94 | 1018.1 |
| 20260509042449 | 65 | 316 | 0.0 | 0.0 | 0.00 | 0.00 | 0.00 | 94 | 1018.1 |
| 20260509041945 | 65 | 315 | 0.0 | 0.9 | 0.00 | 0.00 | 0.00 | 94 | 1018.4 |
| 20260509041442 | 65 | 325 | 0.0 | 0.9 | 0.00 | 0.00 | 0.00 | 94 | 1018.4 |
| 20260509040940 | 65 | 319 | 0.0 | 0.0 | 0.00 | 0.00 | 0.00 | 94 | 1018.4 |
| 20260509040438 | 65 | 314 | 0.0 | 0.0 | 0.00 | 0.00 | 0.00 | 94 | 1018.6 |
| 20260509035934 | 65 | 314 | 0.0 | 0.0 | 0.00 | 0.01 | 0.01 | 94 | 1018.5 |
| 20260509035431 | 65 | 325 | 0.9 | 0.9 | 0.00 | 0.01 | 0.01 | 94 | 1018.6 |
| 20260509034928 | 65 | 315 | 0.9 | 0.9 | 0.00 | 0.01 | 0.01 | 94 | 1018.3 |
| 20260509034426 | 65 | 317 | 0.0 | 0.9 | 0.00 | 0.01 | 0.01 | 94 | 1018.6 |
| 20260509033922 | 65 | 314 | 0.0 | 0.9 | 0.00 | 0.01 | 0.01 | 94 | 1018.4 |
| 20260509033420 | 65 | 308 | 0.0 | 0.0 | 0.00 | 0.01 | 0.01 | 94 | 1018.6 |
| 20260509032916 | 65 | 311 | 0.0 | 0.0 | 0.00 | 0.01 | 0.01 | 94 | 1018.5 |
| 20260509032414 | 65 | 307 | 0.0 | 0.0 | 0.00 | 0.01 | 0.01 | 94 | 1018.6 |
| 20260509031911 | 65 | 309 | 0.0 | 0.0 | 0.00 | 0.01 | 0.01 | 94 | 1018.7 |
| 20260509031409 | 65 | 308 | 0.0 | 0.9 | 0.00 | 0.01 | 0.01 | 94 | 1018.5 |
| 20260509030906 | 65 | 310 | 0.0 | 0.0 | 0.00 | 0.01 | 0.01 | 94 | 1018.5 |
| 20260509030404 | 65 | 310 | 0.0 | 0.0 | 0.00 | 0.01 | 0.01 | 93 | 1018.5 |
| 20260509025901 | 65 | 310 | 0.0 | 0.9 | 0.00 | 0.01 | 0.01 | 93 | 1018.7 |
| 20260509025356 | 65 | 311 | 0.0 | 0.9 | 0.00 | 0.01 | 0.01 | 94 | 1018.9 |
| 20260509024851 | 66 | 308 | 0.0 | 0.0 | 0.00 | 0.01 | 0.01 | 94 | 1018.5 |
| 20260509024347 | 66 | 311 | 0.9 | 0.9 | 0.00 | 0.01 | 0.01 | 94 | 1018.5 |
| 20260509023845 | 66 | 310 | 0.0 | 0.0 | 0.00 | 0.01 | 0.01 | 94 | 1018.5 |
| 20260509023342 | 66 | 312 | 0.0 | 0.0 | 0.00 | 0.01 | 0.01 | 94 | 1018.5 |
| 20260509022838 | 66 | 325 | 0.0 | 0.0 | 0.00 | 0.01 | 0.01 | 95 | 1018.6 |
| 20260509022336 | 66 | 319 | 0.9 | 0.9 | 0.00 | 0.01 | 0.01 | 95 | 1018.5 |
| 20260509021832 | 66 | 322 | 0.9 | 0.9 | 0.00 | 0.01 | 0.01 | 95 | 1018.7 |
| 20260509021324 | 66 | 306 | 0.0 | 0.0 | 0.00 | 0.01 | 0.01 | 95 | 1018.3 |
| 20260509020822 | 66 | 312 | 0.0 | 0.0 | 0.00 | 0.01 | 0.01 | 95 | 1018.4 |
| 20260509020319 | 66 | 310 | 0.0 | 0.0 | 0.00 | 0.01 | 0.01 | 95 | 1018.6 |
| 20260509015817 | 66 | 308 | 0.0 | 0.0 | 0.00 | 0.01 | 0.01 | 95 | 1018.7 |
| 20260509015315 | 66 | 308 | 0.0 | 0.0 | 0.00 | 0.01 | 0.01 | 95 | 1018.4 |
| 20260509014811 | 66 | 309 | 0.0 | 0.0 | 0.00 | 0.01 | 0.01 | 95 | 1018.5 |
| 20260509014308 | 67 | 310 | 0.0 | 0.0 | 0.00 | 0.01 | 0.01 | 94 | 1018.6 |
| 20260509013804 | 67 | 313 | 0.0 | 0.9 | 0.00 | 0.01 | 0.01 | 94 | 1018.3 |
| 20260509013301 | 67 | 309 | 0.0 | 0.9 | 0.00 | 0.01 | 0.01 | 94 | 1018.4 |
| 20260509012757 | 67 | 307 | 0.0 | 0.0 | 0.00 | 0.01 | 0.01 | 94 | 1018.2 |
| 20260509012254 | 67 | 307 | 0.0 | 0.0 | 0.00 | 0.01 | 0.01 | 94 | 1018.4 |
| 20260509011751 | 68 | 307 | 0.0 | 0.0 | 0.00 | 0.01 | 0.01 | 93 | 1018.4 |
| 20260509011248 | 68 | 309 | 0.0 | 0.0 | 0.00 | 0.01 | 0.01 | 93 | 1018.2 |
| 20260509010746 | 68 | 309 | 0.0 | 0.0 | 0.00 | 0.01 | 0.01 | 93 | 1018.4 |
| 20260509010242 | 68 | 310 | 0.0 | 0.0 | 0.00 | 0.01 | 0.01 | 93 | 1018.1 |
| 20260509005740 | 68 | 309 | 0.0 | 0.0 | 0.00 | 0.01 | 0.01 | 92 | 1018.1 |
| 20260509005237 | 69 | 309 | 0.0 | 0.0 | 0.00 | 0.01 | 0.01 | 92 | 1017.9 |
| 20260509004732 | 69 | 310 | 0.0 | 0.9 | 0.00 | 0.01 | 0.01 | 92 | 1018.3 |
| 20260509004229 | 69 | 306 | 0.0 | 0.0 | 0.00 | 0.01 | 0.01 | 92 | 1018.1 |
| 20260509003727 | 69 | 306 | 0.0 | 0.0 | 0.00 | 0.01 | 0.01 | 91 | 1018.1 |
| 20260509003225 | 70 | 306 | 0.0 | 0.0 | 0.00 | 0.01 | 0.01 | 91 | 1017.9 |
| 20260509002722 | 70 | 307 | 0.0 | 0.0 | 0.00 | 0.01 | 0.01 | 92 | 1018.0 |
| 20260509002219 | 70 | 307 | 0.0 | 0.0 | 0.00 | 0.01 | 0.01 | 92 | 1017.9 |
| 20260509001717 | 70 | 307 | 0.0 | 0.0 | 0.00 | 0.01 | 0.01 | 92 | 1017.9 |
| 20260509001212 | 70 | 308 | 0.0 | 0.0 | 0.00 | 0.01 | 0.01 | 91 | 1017.7 |
| 20260509000705 | 70 | 309 | 0.0 | 0.0 | 0.00 | 0.01 | 0.01 | 91 | 1017.7 |
| 20260509000204 | 70 | 307 | 0.0 | 0.0 | 0.00 | 0.01 | 0.01 | 91 | 1017.5 |
| 20260508235658 | 70 | 305 | 0.0 | 0.0 | 0.00 | 0.01 | 0.01 | 91 | 1017.2 |
| 20260508235154 | 70 | 304 | 0.0 | 0.0 | 0.00 | 0.01 | 0.01 | 90 | 1017.4 |
| 20260508234652 | 71 | 306 | 0.0 | 0.0 | 0.00 | 0.01 | 0.01 | 90 | 1017.4 |
| 20260508234148 | 71 | 307 | 0.0 | 0.0 | 0.00 | 0.01 | 0.01 | 89 | 1017.3 |
| 20260508233643 | 71 | 304 | 0.0 | 0.0 | 0.00 | 0.01 | 0.01 | 89 | 1017.0 |
| 20260508233140 | 71 | 304 | 0.0 | 0.9 | 0.00 | 0.01 | 0.01 | 89 | 1017.2 |
| 20260508232637 | 71 | 308 | 0.0 | 0.0 | 0.00 | 0.01 | 0.01 | 87 | 1017.1 |
| 20260508232133 | 71 | 311 | 0.0 | 0.0 | 0.00 | 0.01 | 0.01 | 87 | 1017.0 |
| 20260508231631 | 71 | 299 | 0.0 | 0.0 | 0.00 | 0.01 | 0.01 | 87 | 1016.7 |
| 20260508231128 | 71 | 307 | 0.0 | 0.9 | 0.00 | 0.01 | 0.01 | 87 | 1016.7 |
| 20260508230624 | 71 | 304 | 0.0 | 0.0 | 0.00 | 0.01 | 0.01 | 87 | 1017.0 |
| 20260508230121 | 72 | 294 | 0.0 | 0.0 | 0.00 | 0.01 | 0.01 | 86 | 1016.9 |
| 20260508225619 | 72 | 293 | 0.0 | 0.9 | 0.00 | 0.01 | 0.01 | 87 | 1016.7 |
| 20260508225115 | 72 | 300 | 0.0 | 0.0 | 0.00 | 0.01 | 0.01 | 86 | 1016.9 |
| 20260508224613 | 72 | 287 | 0.0 | 0.0 | 0.00 | 0.01 | 0.01 | 87 | 1016.6 |
| 20260508224110 | 72 | 291 | 0.0 | 0.0 | 0.00 | 0.01 | 0.01 | 86 | 1016.6 |
| 20260508223608 | 72 | 315 | 1.7 | 2.6 | 0.00 | 0.01 | 0.01 | 86 | 1016.4 |
| 20260508223105 | 72 | 284 | 0.0 | 0.0 | 0.00 | 0.01 | 0.01 | 86 | 1016.5 |
| 20260508222602 | 72 | 295 | 0.9 | 1.7 | 0.00 | 0.01 | 0.01 | 86 | 1016.4 |
| 20260508222059 | 73 | 305 | 0.9 | 0.9 | 0.00 | 0.01 | 0.01 | 84 | 1016.2 |
| 20260508221555 | 73 | 351 | 0.9 | 1.7 | 0.00 | 0.01 | 0.01 | 84 | 1016.3 |
| 20260508221051 | 73 | 316 | 0.9 | 0.9 | 0.00 | 0.01 | 0.01 | 84 | 1016.2 |
| 20260508220548 | 74 | 310 | 0.0 | 0.9 | 0.00 | 0.01 | 0.01 | 83 | 1015.9 |
| 20260508220044 | 74 | 316 | 0.0 | 0.9 | 0.00 | 0.01 | 0.01 | 83 | 1016.0 |
| 20260508215541 | 74 | 284 | 1.7 | 2.6 | 0.00 | 0.01 | 0.01 | 82 | 1016.0 |
| 20260508215038 | 75 | 311 | 2.6 | 4.3 | 0.00 | 0.01 | 0.01 | 81 | 1016.1 |
| 20260508214536 | 75 | 320 | 0.0 | 0.9 | 0.00 | 0.01 | 0.01 | 81 | 1016.2 |